Location: Chevoux
(46.3801°N, 4.9476°E)
Time: 01:52:34
(UTC+00:00)

Transit 2A Rocket - All Passes

Search period start: 12 May 2021 00:00
Search period end: 22 May 2021 00:00
Orbit: 594 x 909 km, 66.7° (Epoch: 11 May)

Date Brightness Start Highest point End Pass type
(mag) Time Alt. Az. Time Alt. Az. Time Alt. Az.
12 May - 08:49:57 10° S 08:53:44 29° ESE 08:57:27 10° NE daylight
12 May - 10:32:09 10° WSW 10:36:09 35° NW 10:40:09 10° NNE daylight
12 May - 15:48:31 10° N 15:50:04 11° NNE 15:51:39 10° NE daylight
12 May - 17:29:11 10° NNW 17:33:40 49° NE 17:38:31 10° SE daylight
12 May - 19:12:09 10° WNW 19:16:00 25° WSW 19:20:05 10° SSW daylight
13 May - 08:08:40 10° SSE 08:11:22 16° ESE 08:14:01 10° ENE daylight
13 May - 09:49:07 10° SW 09:53:25 59° NW 09:57:42 10° NNE daylight
13 May - 11:35:10 10° NW 11:36:54 12° NNW 11:38:38 10° N daylight
13 May - 16:46:47 10° NNW 16:50:53 31° NE 16:55:17 10° ESE daylight
13 May - 18:29:06 10° NW 18:33:32 42° WSW 18:38:19 10° S daylight
14 May - 09:06:26 10° SSW 09:10:47 78° ESE 09:15:06 10° NE daylight
14 May - 10:50:56 10° W 10:53:51 17° NW 10:56:47 10° N daylight
14 May - 16:04:31 10° N 16:08:01 21° NE 16:11:41 10° E daylight
14 May - 17:46:19 10° NW 17:50:59 73° WSW 17:56:05 10° SSE daylight
15 May - 08:24:09 10° S 08:28:16 42° ESE 08:32:20 10° NE daylight
15 May - 10:07:15 10° WSW 10:10:55 26° NW 10:14:36 10° NNE daylight
15 May - 15:22:28 10° N 15:25:02 14° NE 15:27:40 10° ENE daylight
15 May - 17:03:43 10° NNW 17:08:22 68° NE 17:13:25 10° SE daylight
15 May - 18:47:18 10° WNW 18:50:31 18° WSW 18:53:52 10° SSW daylight
16 May - 07:42:22 10° SSE 07:45:50 23° ESE 07:49:16 10° ENE daylight
16 May - 09:23:59 10° WSW 09:28:06 42° NW 09:32:14 10° NNE daylight
16 May - 14:41:12 10° NNE 14:41:55 10° NNE 14:42:38 10° NE daylight
16 May - 16:21:15 10° NNW 16:25:40 41° NE 16:30:25 10° ESE daylight
16 May - 18:03:57 10° NW 18:08:06 30° WSW 18:12:33 10° S daylight
17 May - 07:01:33 10° SE 07:03:30 13° ESE 07:05:27 10° E daylight
17 May - 08:41:04 10° SW 08:45:25 73° NW 08:49:45 10° NNE daylight
17 May - 10:26:30 10° WNW 10:28:45 14° NNW 10:31:00 10° N daylight
17 May - 15:38:54 10° NNW 15:42:51 27° NE 15:47:03 10° ESE daylight
17 May - 17:21:01 10° NW 17:25:36 52° WSW 17:30:35 10° SSE daylight
18 May - 07:58:31 10° SSW 08:02:50 62° ESE 08:07:05 10° NE daylight
18 May - 09:42:31 10° W 09:45:45 20° NW 09:48:59 10° N daylight
18 May - 14:56:41 10° N 14:59:56 18° NE 15:03:19 10° E daylight
18 May - 16:38:18 10° NW 16:43:02 87° WSW 16:48:10 10° SSE daylight
18 May - 18:22:56 10° W 18:24:59 12° WSW 18:27:04 10° SW daylight
19 May - 07:16:24 10° S 07:20:20 34° ESE 07:24:14 10° NE daylight
19 May - 08:59:00 10° WSW 09:02:51 30° NW 09:06:43 10° NNE daylight
19 May - 14:14:44 10° N 14:16:53 13° NNE 14:19:06 10° ENE daylight
19 May - 15:55:45 10° NNW 16:00:22 57° NE 16:05:24 10° SE daylight
19 May - 17:38:57 10° WNW 17:42:37 22° WSW 17:46:31 10° SSW daylight
20 May - 06:34:53 10° SSE 06:37:56 19° ESE 06:40:59 10° ENE daylight
20 May - 08:15:52 10° SW 08:20:05 50° NW 08:24:19 10° NNE daylight
20 May - 10:02:29 10° NW 10:03:42 11° NNW 10:04:55 10° NNW daylight
20 May - 15:13:19 10° NNW 15:17:37 35° NE 15:22:15 10° ESE daylight
20 May - 16:55:48 10° NW 17:00:11 37° WSW 17:04:55 10° S daylight
21 May - 05:55:22 10° ESE 05:55:39 10° ESE 05:55:54 10° ESE daylight
21 May - 07:33:05 10° SSW 07:37:25 89° WNW 07:41:46 10° NNE daylight
21 May - 09:17:58 10° WNW 09:20:37 16° NW 09:23:17 10° N daylight
21 May - 14:31:00 10° NNW 14:34:47 24° NE 14:38:47 10° E daylight
21 May - 16:12:57 10° NW 16:17:39 63° WSW 16:22:46 10° SSE daylight
